Regional Weather Roundup
Issued by NWS

Home | Current Version | Previous Version | Text Only | Print | Product List | Glossary Off
Versions: 1 2 3 4 5 6 7 8 9 10 11 12 13 14 15 16 17 18 19 20 21 22 23 24 25 26 27 28 29 30 31 32 33 34 35 36 37 38 39 40 41 42 43 44 45 46 47 48 49 50

000
ASUS43 KMKX 311200
RWRWI

WISCONSIN REGIONAL WEATHER ROUNDUP
NATIONAL WEATHER SERVICE MILWAUKEE/SULLIVAN WI
700 AM CDT TUE MAY 31 2016

NOTE: "FAIR" INDICATES FEW OR NO CLOUDS BELOW 12,000 FEET WITH NO
SIGNIFICANT WEATHER AND/OR OBSTRUCTIONS TO VISIBILITY.

WIZ001-002-006>008-014>016-023>028-311300-
NORTHWEST WISCONSIN

CITY           SKY/WX    TMP DP  RH WIND       PRES   REMARKS
SUPERIOR ARPT  CLOUDY    44  41  90 NE16G28   29.98F
ASHLAND        CLOUDY    50  45  83 NE12      29.98F
6HR MIN TEMP:  46; 6HR MAX TEMP:  53;

HAYWARD        CLOUDY    59  52  77 VRB3      29.93R
6HR MIN TEMP:  57; 6HR MAX TEMP:  63; 6HR PCP: TRACE;

SIREN          CLOUDY    58  54  84 NE8       29.90S
CUMBERLAND     CLOUDY    63  54  72 SE7       29.90F
RICE LAKE      CLOUDY    64  56  75 SE9       29.92F
CHETEK         CLOUDY    63  58  85 SE7       29.92S
LADYSMITH      CLOUDY    61  56  82 E9        29.96R
EAU CLAIRE     NOT AVBL
MENOMONIE      CLOUDY    64  58  81 E6        29.90F
NEW RICHMOND   CLOUDY    65  55  69 S9        29.89R
OSCEOLA        CLOUDY    65  56  71 SE6       29.91R
$$

WIZ003>005-009-010-017-018-311300-
NORTH CENTRAL WISCONSIN

CITY           SKY/WX    TMP DP  RH WIND       PRES   REMARKS
MANITOWISH WTR NOT AVBL
ARBOR VITAE    CLOUDY    55  50  83 E13       30.03F
WOODRUFF       CLOUDY    55  50  83 E13       30.03F
RHINELANDER    LGT RAIN  51  46  83 E16       30.04F
6HR MIN TEMP:  51; 6HR MAX TEMP:  61; 6HR PCP: TRACE;

EAGLE RIVER      N/A     50  43  78 E9        30.06S
LAND O LAKES   CLOUDY    50  44  79 E6        30.08S
PHILLIPS       CLOUDY    56  50  80 E6        29.98R
6HR MIN TEMP:  55; 6HR MAX TEMP:  58;

TOMAHAWK       LGT RAIN  55  49  82 E7        30.01F
MEDFORD        PTSUNNY   58  54  88 E9        29.98R
MERRILL        PTSUNNY   55  50  85 SE12G18   30.02R
$$

WIZ029-030-035-036-043>047-311300-
CENTRAL WISCONSIN

CITY           SKY/WX    TMP DP  RH WIND       PRES   REMARKS
WAUSAU         CLOUDY    57  50  77 E12       30.00F
6HR MIN TEMP:  57; 6HR MAX TEMP:  62;

MOSINEE        SUNNY     55  54  94 E13G20    30.02F
MARSHFIELD     MOSUNNY   63  55  75 E13       29.98R
6HR MIN TEMP:  61; 6HR MAX TEMP:  66;

STEVENS POINT  MOSUNNY   55  52  87 E14       30.03R
WAUPACA        CLOUDY    59  56  92 NE6       30.04R
WAUTOMA        PTSUNNY  N/A N/A N/A E7        30.02R
WISC RAPIDS    CLOUDY    61  54  77 E13       30.01R
6HR MIN TEMP:  61; 6HR MAX TEMP:  66; 6HR PCP: TRACE;

CAMP DOUGLAS   NOT AVBL
$$

WIZ011>013-019>022-031-037>040-048>050-311300-
NORTHEAST WISCONSIN

CITY           SKY/WX    TMP DP  RH WIND       PRES   REMARKS
ANTIGO         CLOUDY    50  46  87 E12       30.06R
SHAWANO        LGT RAIN  55  49  79 E17       30.07F
6HR MIN TEMP:  55; 6HR MAX TEMP:  65;

OCONTO         CLOUDY    52  50  92 N3        30.10R
STURGEON BAY   NOT AVBL
GREEN BAY      MOSUNNY   57  51  80 NE15      30.08R
6HR MIN TEMP:  57; 6HR MAX TEMP:  64;

MANITOWOC      NOT AVBL
APPLETON       PTSUNNY   57  48  72 E17       30.03S
CLINTONVILLE   CLOUDY    54  48  82 E9        30.06R
OSHKOSH        RAIN      61  57  87 NE8       30.03R FOG
6HR MIN TEMP:  59; 6HR MAX TEMP:  67; 6HR PCP:  0.01;

$$

WIZ032>034-041-042-053>061-311300-
SOUTHWEST WISCONSIN

CITY           SKY/WX    TMP DP  RH WIND       PRES   REMARKS
LA CROSSE      PTSUNNY   65  59  81 SE5       29.91F
6HR MIN TEMP:  63; 6HR MAX TEMP:  68; 6HR PCP:  0.05;

SPARTA         CLOUDY    62  60  93 CALM      29.95F
VIROQUA        PTSUNNY   61  59  93 E9        29.95F
BOSCOBEL       NOT AVBL
PRAIRIE DU CHI MOSUNNY   61  60  96 CALM      29.94S
PLATTEVILLE    SUNNY     64  60  85 E10       29.96S
$$

WIZ056-057-062-063-064-067-068-311300-
SOUTH CENTRAL WISCONSIN

CITY           SKY/WX    TMP DP  RH WIND       PRES   REMARKS
REEDSBURG      SUNNY     64  56  75 CALM      29.97S
BARABOO/DELLS  SUNNY     67  55  66 E7        29.98S
LONE ROCK      NOT AVBL
MINERAL POINT  MOSUNNY   64  57  77 E8        29.97S
MADISON        PTSUNNY   67  58  72 E6        29.98F
6HR MIN TEMP:  63; 6HR MAX TEMP:  68; 6HR PCP: TRACE;

MIDDLETON      MOSUNNY   67  60  76 SE7       30.00S
WATERTOWN      SUNNY     61  61  99 S3        30.01S
MONROE         SUNNY     63  55  77 E7        29.98S
JANESVILLE     MOSUNNY   66  55  68 E7        30.00R
$$

WIZ051-052-058>065-066-070>072-311300-
SOUTHEAST WISCONSIN

CITY           SKY/WX    TMP DP  RH WIND       PRES   REMARKS
MILWAUKEE      CLOUDY    64  56  75 E3        30.03R
6HR MIN TEMP:  60; 6HR MAX TEMP:  67; 6HR PCP:  0.01;

WAUKESHA       MOSUNNY   59  55  88 CALM      30.03F
MILWAUKEE/TIMM CLOUDY    63  54  72 CALM      30.03S
RACINE         MOSUNNY   66  58  75 NE7       30.05R
6HR MIN TEMP:  58; 6HR MAX TEMP:  66; 6HR PCP: TRACE;

BURLINGTON     PTSUNNY   62  56  81 CALM      30.02S
KENOSHA        PTSUNNY   66  56  70 NE5       30.02R
6HR MIN TEMP:  59; 6HR MAX TEMP:  66;

FOND DU LAC    LGT RAIN  64  58  80 E7        30.03R
6HR MIN TEMP:  59; 6HR MAX TEMP:  66; 6HR PCP:  0.05;

SHEBOYGAN      CLOUDY    55  50  83 NE12      30.05S
6HR MIN TEMP:  55; 6HR MAX TEMP:  60;

WEST BEND      CLOUDY    61  57  88 CALM      30.03R
JUNEAU         MOSUNNY   61  58  91 SE5       30.02S
$$

LSZ147-162-311300-
LAKE SUPERIOR

STATION/POSITION TIME  TEMP    WIND        PRES    WAVE
                       AIR SEA DIR/SP/G            HT/PER
                 (UTC) (F)     (DEG/KT/KT) (MB)    (FT/S)
W MID LAKE BUOY  1050   41 38   70/ 17/ 21 1018.7F   3/ 4
DEVILS ISLAND    1100   44      70/ 19/ 22 1018.0F
SAXON HARBOR     1100   54      50/  5/  7 1015.6F
$$

LMZ867-665-643>646-311300-
LAKE MICHIGAN

STATION/POSITION TIME  TEMP    WIND        PRES    WAVE
                       AIR SEA DIR/SP/G            HT/PER
                 (UTC) (F)     (DEG/KT/KT) (MB)    (FT/S)
CHAMBERS ISLAND  1100   52      10/ 11/ 16 1019.3
N MID LAKE BUOY  1050   49 48   30/ 12/ 14 1018.4R   2/ 3
NORTHPORT PIER   1100   51      50/  8/ 10 1019.3R
KEWAUNEE LAKESHO 1100   50      20/ 12/ 18 1017.4R
SHEBOYGAN LAKESH 1100   55     360/ 17/ 18 1018.0R
PORT WASHINGTON  1130   53      30/  9/ 14 1017.6R
S MID LAKE BUOY  1050   59 55  110/  4/  4 1015.9R   0
KENOSHA   LAKESH 1100   62      CALM  /  2 1016.3R
$$

TC  - TEMPERATURE IN CELSIUS
VSB - VISIBILITY IN STATUTE MILES
WCI - WIND CHILL INDEX
HX  - HEAT INDEX





USA.gov is the U.S. government's official web portal to all federal, state and local government web resources and services.